[[{"header":{"parameterUnit":"m.s-1","parameterCategory":1,"la1":30.2991,"la2":30.254,"lo1":-89.0895,"lo2":-89.0444,"dy":0.0017,"dx":0.0017,"nx":28,"ny":28,"refTime":"2024-08-25T21:00:00:Z","depth":0,"parameterNumber":2,"parameterNumberName":"U-component_of_WINDS"},"data":[0,0,0,0,0,0,0,0,0,0,0,0,0,0,0,0,0,0,0,0,0,0,0,0,0,0,0,0,0,0,0,0,0,0,0,0,0,0,0,0,0,0,0,0,0,0,0,0,0,0,0,0,0,0,0,0,0,0,-1.6758,-1.6758,0,-1.6737,-1.6736,-1.6736,-1.67,-1.6699,-1.6698,-1.6698,-1.6677,-1.6677,-1.6677,0,0,0,0,0,0,0,0,0,0,0,0,0,-1.677,-1.677,-1.6758,-1.6758,-1.6758,-1.6737,-1.6736,-1.6736,-1.67,-1.6699,-1.6698,-1.6697,-1.6677,-1.6677,-1.6677,0,0,0,0,0,0,0,0,0,0,0,0,0,-1.6759,-1.677,-1.6758,-1.6737,-1.6735,-1.6737,-1.6736,-1.6736,-1.67,-1.6699,-1.6698,-1.6697,-1.6677,-1.6677,-1.6677,-1.6698,0,0,-1.6677,-1.6677,0,0,0,0,0,0,0,0,-1.6759,-1.6758,-1.674,-1.6738,-1.6736,-1.672,-1.6733,-1.6723,-1.67,-1.6713,-1.6698,-1.6697,-1.6692,-1.6691,-1.6689,-1.6697,-1.6696,-1.6677,-1.6677,-1.6677,-1.6677,0,0,0,0,0,0,0,-1.676,-1.6759,-1.675,-1.674,-1.6738,-1.6729,-1.6727,-1.6731,-1.6709,-1.6712,-1.6709,-1.6707,-1.6691,-1.6689,-1.6688,-1.6696,-1.6677,-1.6677,-1.6677,-1.6677,-1.6722,-1.6723,0,0,0,0,0,0,-1.6764,-1.676,-1.675,-1.6749,-1.6745,-1.673,-1.6727,-1.6726,-1.6708,-1.6705,-1.6708,-1.6706,-1.6689,-1.6688,-1.6687,-1.6712,-1.6677,-1.6677,-1.6677,-1.6721,-1.6723,-1.6724,0,0,0,0,0,0,-1.6764,-1.6763,-1.6751,-1.6754,-1.6752,-1.6731,-1.673,-1.6726,-1.6724,-1.6706,-1.6702,-1.671,-1.6688,-1.6687,-1.6696,-1.6711,-1.6677,-1.6678,-1.672,-1.6722,-1.6723,-1.6761,0,0,0,0,0,0,-1.6765,-1.6764,-1.6771,-1.6754,-1.6752,-1.6759,-1.6731,-1.6727,-1.6725,-1.6721,-1.6707,-1.6703,-1.6687,-1.6696,-1.6696,-1.671,-1.6678,-1.6719,-1.6721,-1.6723,-1.6758,-1.6763,-1.6768,0,0,0,0,0,-1.6765,-1.6782,-1.6771,-1.677,-1.676,-1.676,-1.6759,-1.674,-1.6726,-1.6733,-1.6722,-1.6704,-1.6709,-1.6697,-1.6697,-1.6711,-1.6717,-1.672,-1.6723,-1.6756,-1.6762,-1.6768,0,0,0,0,0,0,-1.68,-1.6779,-1.6767,-1.6779,-1.6772,-1.6754,-1.6763,-1.6748,-1.6745,-1.6741,-1.6719,-1.6716,-1.6728,-1.6721,-1.6708,-1.6732,-1.6711,-1.6713,-1.6736,-1.6742,-1.6747,-1.6748,-1.6678,0,0,0,0,0,-1.6809,-1.6811,-1.6793,-1.6805,-1.6802,-1.6783,-1.6783,-1.6769,-1.6761,-1.6758,-1.6747,-1.674,-1.6741,-1.6741,-1.674,-1.6757,-1.6754,-1.6767,-1.6772,-1.6777,-1.6779,-1.6789,-1.6795,-1.6732,-1.6732,-1.6732,0,0,-1.6828,-1.6817,-1.6819,-1.6812,-1.6804,-1.6808,-1.6781,-1.6785,-1.6787,-1.6759,-1.6766,-1.6758,-1.675,-1.6763,-1.6768,-1.6757,-1.6796,-1.678,-1.6783,-1.6783,-1.6792,-1.6798,-1.6804,-1.6734,-1.6734,-1.6733,0,0,-1.6863,-1.6855,-1.6864,-1.6858,-1.6848,-1.6836,-1.6839,-1.6824,-1.6818,-1.6825,-1.6805,-1.6808,-1.6809,-1.6804,-1.6801,-1.6838,-1.6822,-1.6839,-1.6865,-1.6875,-1.688,-1.6884,-1.6898,-1.6903,-1.6841,-1.6842,-1.6842,0,-1.6888,-1.6891,-1.6871,-1.6877,-1.6875,-1.685,-1.6861,-1.6856,-1.6846,-1.6846,-1.6834,-1.6836,-1.6828,-1.6841,-1.685,-1.6849,-1.6852,-1.684,-1.6881,-1.6885,-1.6889,-1.6902,-1.6907,-1.6844,-1.6843,-1.6843,-1.6843,0,-1.6922,-1.6925,-1.6934,-1.6926,-1.6925,-1.6933,-1.6916,-1.6918,-1.6905,-1.6895,-1.6904,-1.6895,-1.6892,-1.6895,-1.6882,-1.6906,-1.69,-1.6885,-1.6863,-1.6897,-1.6909,-1.6914,-1.6847,-1.6846,-1.6845,-1.6845,0,0,-1.6977,-1.6959,-1.6963,-1.696,-1.6948,-1.695,-1.6959,-1.6956,-1.6959,-1.6954,-1.6961,-1.6964,-1.695,-1.6948,-1.6935,-1.6944,-1.6975,-1.6928,-1.6927,-1.6937,-1.7003,-1.7014,-1.702,-1.6965,-1.6966,-1.6967,-1.7004,0,-1.701,-1.7022,-1.7006,-1.7021,-1.7025,-1.7003,-1.701,-1.7004,-1.6996,-1.6998,-1.6989,-1.6991,-1.6973,-1.6971,-1.6979,-1.697,-1.6988,-1.6967,-1.6972,-1.6972,-1.6974,-1.7026,-1.7038,-1.7074,-1.7008,-1.7009,-1.701,0,-1.7049,-1.7047,-1.7063,-1.7053,-1.7053,-1.706,-1.7058,-1.706,-1.7054,-1.7047,-1.7046,-1.7031,-1.704,-1.7019,-1.7032,-1.7018,-1.7019,-1.7015,-1.7016,-1.7015,-1.6993,-1.7027,-1.7084,-1.709,-1.7017,-1.7016,-1.7016,0,-1.7089,-1.7089,-1.71,-1.7098,-1.7085,-1.7091,-1.7086,-1.7079,-1.7079,-1.7078,-1.7078,-1.7078,-1.7078,-1.7079,-1.7065,-1.7051,-1.708,-1.7058,-1.7075,-1.7076,-1.7081,-1.7081,-1.7139,-1.7083,-1.7083,-1.7083,-1.7083,0,-1.7127,-1.7138,-1.7117,-1.7124,-1.7136,-1.7118,-1.7131,-1.7125,-1.7119,-1.7125,-1.7106,-1.7112,-1.7093,-1.7097,-1.7087,-1.7099,-1.7099,-1.7095,-1.7092,-1.7096,-1.7097,-1.7097,-1.7094,-1.7084,-1.7084,-1.7083,-1.7083,0,-1.7172,-1.7159,-1.7169,-1.7157,-1.7154,-1.7164,-1.7154,-1.716,-1.7151,-1.7159,-1.7159,-1.7145,-1.715,-1.7136,-1.7138,-1.7132,-1.715,-1.7143,-1.7152,-1.715,-1.7168,-1.7167,-1.7228,-1.7236,-1.7174,-1.7175,-1.7175,0,-1.7198,-1.7206,-1.7195,-1.7197,-1.7194,-1.7197,-1.7198,-1.7182,-1.7184,-1.7179,-1.7186,-1.7189,-1.719,-1.7199,-1.7189,-1.7191,-1.7184,-1.7206,-1.7185,-1.719,-1.7185,-1.7185,-1.7186,-1.721,-1.7211,-1.7211,-1.7212,0,-1.7244,-1.7238,-1.7239,-1.7239,-1.7241,-1.724,-1.7237,-1.7241,-1.7224,-1.7227,-1.7231,-1.7232,-1.7235,-1.7239,-1.7239,-1.7235,-1.7222,-1.7219,-1.7223,-1.7228,-1.7233,-1.7231,-1.7164,-1.7217,-1.7217,-1.7216,-1.7216,-1.7216,-1.7281,-1.7287,-1.7281,-1.7284,-1.7281,-1.728,-1.7286,-1.7278,-1.7281,-1.7282,-1.7273,-1.7279,-1.7276,-1.7275,-1.7273,-1.7279,-1.7269,-1.7275,-1.7276,-1.7278,-1.7281,-1.7232,-1.7279,-1.7279,-1.7278,-1.7278,-1.7278,0,-1.7327,-1.7322,-1.7325,-1.7323,-1.7326,-1.7313,-1.731,-1.7314,-1.732,-1.7317,-1.7319,-1.7325,-1.7329,-1.7321,-1.7324,-1.7331,-1.7325,-1.7332,-1.7331,-1.7331,-1.729,-1.7286,-1.7337,-1.7337,-1.7337,-1.7337,-1.7337,-1.7337,-1.7351,-1.7362,-1.7355,-1.7366,-1.7361,-1.7367,-1.7368,-1.7367,-1.7365,-1.7373,-1.7376,-1.7371,-1.7366,-1.7369,-1.7373,-1.7371,-1.7373,-1.7383,-1.7378,-1.734,-1.7334,-1.7328,-1.7325,-1.7383,-1.7383,-1.7419,-1.742,-1.742]},{"header":{"parameterUnit":"m.s-1","parameterCategory":1,"la1":30.2991,"la2":30.254,"lo1":-89.0895,"lo2":-89.0444,"dy":0.0017,"dx":0.0017,"nx":28,"ny":28,"refTime":"2024-08-25T21:00:00:Z","depth":0,"parameterNumber":3,"parameterNumberName":"V-component_of_WINDS"},"data":[0,0,0,0,0,0,0,0,0,0,0,0,0,0,0,0,0,0,0,0,0,0,0,0,0,0,0,0,0,0,0,0,0,0,0,0,0,0,0,0,0,0,0,0,0,0,0,0,0,0,0,0,0,0,0,0,0,0,3.8998,3.8998,0,3.902,3.9021,3.9021,3.9064,3.9065,3.9066,3.9067,3.9086,3.9086,3.9085,0,0,0,0,0,0,0,0,0,0,0,0,0,3.8989,3.8989,3.8998,3.8998,3.8998,3.902,3.9021,3.9021,3.9064,3.9065,3.9066,3.9067,3.9086,3.9086,3.9085,0,0,0,0,0,0,0,0,0,0,0,0,0,3.9,3.8989,3.8998,3.9023,3.9025,3.902,3.9021,3.9021,3.9064,3.9065,3.9066,3.9068,3.9086,3.9086,3.9085,3.9057,0,0,3.9084,3.9084,0,0,0,0,0,0,0,0,3.9,3.9001,3.9019,3.9021,3.9024,3.9041,3.9025,3.9033,3.9064,3.9049,3.9067,3.9068,3.907,3.9071,3.9072,3.9058,3.9058,3.9084,3.9084,3.9083,3.9083,0,0,0,0,0,0,0,3.8999,3.9,3.9007,3.9019,3.9022,3.9032,3.9035,3.9026,3.9052,3.905,3.9054,3.9056,3.9071,3.9072,3.9073,3.9059,3.9084,3.9083,3.9083,3.9083,3.9022,3.9021,0,0,0,0,0,0,3.8995,3.8999,3.9006,3.9007,3.9015,3.9031,3.9034,3.9034,3.9052,3.9056,3.9055,3.9058,3.9072,3.9073,3.9073,3.9041,3.9083,3.9083,3.9083,3.9024,3.9022,3.9021,0,0,0,0,0,0,3.8995,3.8995,3.9005,3.9004,3.9006,3.903,3.9029,3.9034,3.9035,3.9055,3.906,3.9051,3.9073,3.9074,3.9061,3.9042,3.9083,3.9082,3.9025,3.9023,3.9021,3.8976,0,0,0,0,0,0,3.8994,3.8995,3.8985,3.9004,3.9006,3.8993,3.9028,3.9033,3.9034,3.9039,3.9053,3.9057,3.9074,3.9061,3.906,3.9043,3.9082,3.9027,3.9024,3.9022,3.8979,3.8973,3.8967,0,0,0,0,0,3.8994,3.897,3.8984,3.8984,3.8994,3.8992,3.8993,3.9015,3.9033,3.9022,3.9036,3.9056,3.9045,3.906,3.9059,3.9041,3.9028,3.9025,3.9022,3.8982,3.8974,3.8967,0,0,0,0,0,0,3.8947,3.8973,3.8989,3.8971,3.8979,3.8999,3.8986,3.9005,3.9007,3.9011,3.9037,3.904,3.9023,3.9031,3.9047,3.9014,3.904,3.9036,3.901,3.9002,3.8996,3.8994,3.9082,0,0,0,0,0,3.8935,3.8932,3.8954,3.8936,3.894,3.8962,3.8962,3.8978,3.8987,3.899,3.9003,3.9009,3.9008,3.9005,3.9005,3.8981,3.8985,3.8968,3.8962,3.8957,3.8953,3.8941,3.8934,3.9011,3.9011,3.9011,0,0,3.8909,3.8923,3.8919,3.8927,3.8935,3.893,3.8965,3.8958,3.8954,3.8989,3.8977,3.8987,3.8996,3.8978,3.897,3.8983,3.8934,3.8953,3.8949,3.8948,3.8938,3.893,3.8924,3.9009,3.9009,3.9009,0,0,3.8859,3.887,3.8856,3.8864,3.8877,3.8892,3.8889,3.8907,3.8915,3.8904,3.893,3.8926,3.8922,3.8927,3.893,3.8884,3.8903,3.8883,3.8851,3.8839,3.8833,3.8827,3.881,3.8804,3.888,3.8879,3.8879,0,3.8825,3.882,3.8846,3.8839,3.8841,3.8874,3.886,3.8866,3.8877,3.8877,3.8893,3.8889,3.8898,3.8881,3.887,3.8871,3.8867,3.8881,3.8832,3.8827,3.8822,3.8806,3.88,3.8877,3.8877,3.8877,3.8878,0,3.8778,3.8774,3.8761,3.8772,3.8774,3.8762,3.8786,3.8784,3.8801,3.8815,3.8803,3.8815,3.8817,3.8815,3.883,3.88,3.8808,3.8827,3.8853,3.8812,3.8797,3.8791,3.8873,3.8874,3.8875,3.8876,0,0,3.8697,3.8725,3.872,3.8726,3.8743,3.8739,3.873,3.8734,3.8731,3.8738,3.873,3.8727,3.8745,3.8747,3.8764,3.8754,3.8716,3.8774,3.8775,3.8762,3.8683,3.8668,3.866,3.8729,3.8728,3.8727,3.8682,0,3.8651,3.8637,3.8661,3.8641,3.8637,3.8669,3.8661,3.867,3.8683,3.8681,3.8695,3.8692,3.8716,3.8718,3.8709,3.8722,3.87,3.8726,3.8721,3.872,3.8716,3.8653,3.8637,3.8593,3.8676,3.8676,3.8675,0,3.8594,3.86,3.858,3.8599,3.8599,3.8591,3.8596,3.8595,3.8605,3.8615,3.8619,3.8639,3.863,3.8657,3.8644,3.8662,3.8661,3.8667,3.8666,3.8665,3.8694,3.8649,3.858,3.8573,3.8666,3.8667,3.8668,0,3.8537,3.854,3.8529,3.8533,3.8555,3.8548,3.8557,3.8569,3.857,3.8575,3.8576,3.8579,3.858,3.8581,3.8602,3.8619,3.8587,3.8615,3.8594,3.8593,3.8584,3.8584,3.8512,3.8585,3.8585,3.8586,3.8586,0,3.8482,3.8468,3.8503,3.8496,3.8482,3.8509,3.8494,3.8505,3.8516,3.8511,3.8539,3.8533,3.8561,3.8558,3.8574,3.8561,3.8562,3.8569,3.8573,3.8566,3.8565,3.8565,3.8568,3.8584,3.8584,3.8585,3.8585,0,3.8415,3.8438,3.8428,3.845,3.8455,3.8444,3.8462,3.8456,3.8471,3.8465,3.8465,3.8488,3.8486,3.8507,3.8509,3.852,3.8499,3.8509,3.8496,3.8498,3.8476,3.8477,3.8401,3.8392,3.8471,3.847,3.847,0,3.8378,3.8369,3.8391,3.839,3.8398,3.8396,3.8398,3.8425,3.8425,3.8437,3.8429,3.843,3.8432,3.8428,3.8444,3.8446,3.8455,3.8428,3.8455,3.8449,3.8454,3.8454,3.8453,3.8422,3.8421,3.842,3.842,0,3.831,3.8322,3.8324,3.833,3.8332,3.8337,3.8345,3.8342,3.8371,3.837,3.837,3.8371,3.8374,3.8374,3.8379,3.8387,3.8408,3.8411,3.8406,3.8398,3.8391,3.8394,3.8479,3.8412,3.8413,3.8414,3.8414,3.8414,3.8256,3.8249,3.8264,3.8265,3.8274,3.8281,3.8276,3.8292,3.8292,3.8297,3.8313,3.831,3.8321,3.833,3.8336,3.8333,3.8346,3.8339,3.8337,3.8335,3.833,3.8392,3.8334,3.8334,3.8335,3.8335,3.8335,0,3.8189,3.82,3.8201,3.8211,3.8212,3.8234,3.8243,3.8242,3.8239,3.8249,3.8251,3.825,3.8251,3.8268,3.827,3.8265,3.8274,3.8264,3.8264,3.8266,3.8319,3.8323,3.8257,3.8257,3.8257,3.8257,3.8257,3.8257,3.8153,3.8143,3.8157,3.8151,3.8163,3.8161,3.8164,3.817,3.8178,3.8176,3.8178,3.8189,3.8202,3.8206,3.8207,3.8212,3.8211,3.8198,3.8206,3.8254,3.8262,3.8269,3.8273,3.8198,3.8197,3.8153,3.8152,3.8152]}]]